Regional Weather Roundup
Issued by NWS Bismarck, ND

Home | Current Version | Previous Version | Text Only | Print | Product List | Glossary On
Versions: 1 2 3 4 5 6 7 8 9 10 11 12 13 14 15 16 17 18 19 20 21 22 23 24 25 26 27 28 29 30 31 32 33 34 35 36 37 38 39 40 41 42 43 44 45 46 47 48 49 50
000
ASUS43 KBIS 280720
RWRBIS

NWR BROADCAST TEXT
NATIONAL WEATHER SERVICE BISMARCK ND
200 AM CDT TUE APR 28 2015

NOTE: "FAIR" INDICATES FEW OR NO CLOUDS BELOW 12,000 FEET WITH NO
SIGNIFICANT WEATHER AND/OR OBSTRUCTIONS TO VISIBILITY.


CITY           SKY/WX    TMP DP  RH WIND       PRES   REMARKS
WILLISTON      CLEAR     40  35  83 S3        30.30S
MINOT          CLEAR     41  36  82 SW10      30.28S
MINOT AFB      CLEAR     39  39 100 W12       30.27S
BISMARCK       CLEAR     37  35  92 W6        30.33R
DICKINSON      CLEAR     35  32  88 W6        30.31S
GARRISON         N/A     38  35  89 SW5       30.30S
HETTINGER ARPT CLEAR     31  30  96 NW5       30.34S
JAMESTOWN      PTCLDY    42  39  89 NW8       30.27R
BEACH          CLOUDY    34  34 100 SW3       30.34S
CARRINGTON     FAIR      37  37 100 NW9       30.30R
CROSBY         FAIR      39  39 100 SW10      30.28S
HARVEY           N/A    N/A N/A N/A MISG        N/A
HAZEN          FAIR      32  32 100 SW5       30.33S
LINTON         FAIR      39  39 100 NW3       30.31R FOG
MANDAN         FAIR      37  37 100 NW8       30.33R
OAKES            N/A     46  46 100 N9        30.27R
STANLEY        FAIR      37  37 100 SW5       30.30F
TIOGA          FAIR      37  37 100 W5        30.32F
WATFORD CITY   FAIR      36  36 100 SW6       30.30S
$$

CITY           SKY/WX    TMP DP  RH WIND       PRES   REMARKS
GRAND FORKS    MOCLDY    40  39  97 NW5       30.26S
GRAND FORKS AF FOG       37  37 100 NW5       30.26S VSB 1/4
DEVILS LAKE      N/A     36  32  87 NW6       30.28S VSB 1/2
FARGO          RAIN      48  44  86 N13       30.23F
CANDO          FOG       30  30 100 W5        30.29S VSB 1/2
CAVALIER       FOG       36  36 100 W5        30.27S VSB 3/4
GRAFTON        FOG       39  39 100 CALM      30.28R VSB<1/4
GWINNER          N/A     46  46 100 NW10      30.27S
LANGDON        FOG       28  28 100 CALM      30.27S VSB<1/4
WALHALLA       FAIR      36  36 100 W5        30.27S FOG
$$

CITY           SKY/WX    TMP DP  RH WIND       PRES   REMARKS
ABERDEEN       CLOUDY    48  43  82 N12       30.27S
MOBRIDGE       CLOUDY    41  39  93 N5        30.29R
BUFFALO          N/A     38  35  89 W6        30.27S
RAPID CITY     CLOUDY    42  38  85 N5        30.34F
GLASGOW        CLEAR     40  35  83 SE10      30.27F
SIDNEY         CLEAR     36  32  87 CALM      30.32S
WOLF POINT     CLEAR     37  33  85 W6        30.30S
GLENDIVE       CLEAR     36  30  80 S7        30.33F
MILES CITY     CLEAR     38  35  89 SE8       30.33S
BAKER          CLEAR     32  30  92 CALM      30.34S
$$

CITY           SKY/WX    TMP DP  RH WIND       PRES   REMARKS
BILLINGS       CLEAR     48  34  58 S7        30.28S
GREAT FALLS    CLEAR     43  32  65 S10       30.20S
REGINA         PTCLDY    43  34  70 S8        30.22F
ESTEVAN        CLEAR     39  36  87 S7        30.27F
$$



USA.gov is the U.S. government's official web portal to all federal, state and local government web resources and services.